TimeEDT,TemperatureF,Dew PointF,Humidity,Sea Level PressureIn,VisibilityMPH,Wind Direction,Wind SpeedMPH,Gust SpeedMPH,PrecipitationIn,Events,Conditions,WindDirDegrees,DateUTC
12:54 AM,57.0,51.1,81,30.09,10.0,SSW,10.4,-,N/A,,Partly Cloudy,200,2012-10-04 04:54:00
1:54 AM,57.0,51.1,81,30.10,10.0,SSW,9.2,-,N/A,,Partly Cloudy,200,2012-10-04 05:54:00
2:54 AM,55.0,50.0,83,30.10,10.0,SSW,6.9,-,N/A,,Partly Cloudy,200,2012-10-04 06:54:00
3:54 AM,53.1,50.0,89,30.10,10.0,SSW,6.9,-,N/A,,Scattered Clouds,210,2012-10-04 07:54:00
4:54 AM,53.1,50.0,89,30.10,10.0,SSW,5.8,-,N/A,,Partly Cloudy,200,2012-10-04 08:54:00
5:54 AM,54.0,50.0,86,30.12,10.0,SSW,9.2,-,N/A,,Partly Cloudy,200,2012-10-04 09:54:00
6:54 AM,52.0,50.0,93,30.12,10.0,SW,8.1,-,N/A,,Scattered Clouds,220,2012-10-04 10:54:00
7:54 AM,50.0,48.0,93,30.13,10.0,SSW,6.9,-,N/A,,Partly Cloudy,200,2012-10-04 11:54:00
8:54 AM,55.0,52.0,89,30.14,10.0,SSW,8.1,-,N/A,,Mostly Cloudy,210,2012-10-04 12:54:00
9:54 AM,59.0,53.1,81,30.14,10.0,SSW,9.2,-,N/A,,Mostly Cloudy,210,2012-10-04 13:54:00
10:54 AM,64.0,55.0,73,30.15,10.0,SW,11.5,-,N/A,,Mostly Cloudy,220,2012-10-04 14:54:00
11:54 AM,68.0,55.9,65,30.15,10.0,SW,11.5,-,N/A,,Partly Cloudy,220,2012-10-04 15:54:00
12:54 PM,73.0,55.9,55,30.13,10.0,SSW,13.8,-,N/A,,Partly Cloudy,200,2012-10-04 16:54:00
1:54 PM,75.9,52.0,43,30.10,10.0,WSW,13.8,20.7,N/A,,Partly Cloudy,240,2012-10-04 17:54:00
2:54 PM,75.9,51.1,42,30.09,10.0,SW,17.3,26.5,N/A,,Mostly Cloudy,230,2012-10-04 18:54:00
3:54 PM,79.0,52.0,39,30.07,10.0,WSW,16.1,25.3,N/A,,Partly Cloudy,250,2012-10-04 19:54:00
4:54 PM,78.1,51.1,39,30.07,10.0,WSW,15.0,24.2,N/A,,Scattered Clouds,240,2012-10-04 20:54:00
5:54 PM,75.9,52.0,43,30.07,10.0,WSW,16.1,-,N/A,,Partly Cloudy,240,2012-10-04 21:54:00
6:54 PM,71.1,54.0,55,30.07,10.0,SW,8.1,-,N/A,,Partly Cloudy,220,2012-10-04 22:54:00
7:54 PM,66.9,55.0,66,30.07,10.0,SSW,8.1,-,N/A,,Scattered Clouds,200,2012-10-04 23:54:00
8:54 PM,66.0,55.0,68,30.07,10.0,South,9.2,-,N/A,,Mostly Cloudy,190,2012-10-05 00:54:00
9:54 PM,66.9,55.0,66,30.06,10.0,SSW,12.7,-,N/A,,Mostly Cloudy,200,2012-10-05 01:54:00
10:54 PM,66.0,55.0,68,30.07,10.0,SW,10.4,-,N/A,,Overcast,220,2012-10-05 02:54:00
11:54 PM,66.9,55.9,68,30.09,10.0,WSW,10.4,-,N/A,,Mostly Cloudy,240,2012-10-05 03:54:00